CZ-3A R/B, 30324

Orbit data source: Space-Track

CZ-3A R/B, 30324 is space debris in HEO originally from a launch on Fri, 02 Feb 2007 UTC launched from the Xichang Space Center, China (XSC). Debris objects in space refer to the collection of defunct objects orbiting the Earth. Examples of debris include non-operational satellites, rocket bodies, and fragments generated from explosions, collisions, or faulty payload assembly.

Loading next visibility...
Identifier
30324, 2007-003B
Orbit
HEO
Country
Flag of CNCN / PRC
Related business
Manufacturer
CALT
Mission
Spacecraft
Bus & Motor
CZ-3A STAGE 3, Unknown motor
Mass
~2,800 kg wet, ~2,800 kg dry
Launch date (UTC)
2007-02-02 (19 years ago)
Launch vehicle
Unknown
Launch site
Xichang Space Center, China (XSC)
Object type
Payload
Rocket body
Debris
Shape & HBR
Cyl + 1 Nozzle, 6.2 m
Radar Cross Section
32.751 m², Large (>1 m²)

Expand to show TLE details & history
Last TLE update: 14 hours ago

TLE from 14 hours ago
0 CZ-3A R/B
1 30324U 07003B   26125.77429251  .00006816  00000-0  13245-2 0  9993
2 30324  24.7198  20.0150 5773357  47.1889 348.7318  4.38437918231611
Epoch: 2026-05-05T18:34Z
TLE epoch observation values (Epoch: 2026-05-05T18:34:58.872Z)
Latitude
0.00001°
Longitude
-122.3715°
Altitude
1,159.754 km
Speed
8.971 km/s
True Right ascension
01h 20m 04s
True Declination
0° 00' 00"
Sunlit
Object was in daylight at epoch
Visualization orbit readout
Latitude
Unknown
Longitude
Unknown
Altitude
Unknown
Speed
Unknown
Apparent Right ascension
Unknown
Apparent Declination
Unknown
Sunlit
N/A
Visualization observer readout
Local Sidereal Time
16:36:35
Azimuth
Unknown
Elevation
Unknown
Doppler factor
Unknown
Orbital elements
Apogee altitude
18,500.414 km
Perigee altitude
288.342 km
Semi-major axis
15,772.515 km
Eccentricity
0.57734
Inclination
24.7198°
RAAN
20.015°
Arg. of periapsis
47.1889°
True anomaly
312.74528°
Mean anomaly
348.7318°
Eccentric anomaly
334.48114°
Mean motion
1.0957 °/min
Orbital period
328.56 mins
BSTAR
0.0013245
Loading maneuver chart data...
Computing Atmospheric mass density...
Loading historical data...
Loading historical data...
Loading historical data...
Loading historical data...
Loading historical data...
Loading historical data...
Loading historical data...

Documentation

Showing up to 5 results
|